GW3140 Weather Reports


Display with metric or nautical units.
time (UTC)temp
F
wind
direction
speed
MPH
gust
MPH
rain 1hr
in
rain 24hr
in
rain mn
in
humidity
%
barometer
mb
20260902155516 82 264 1.0 3.0 0.00 0.00 0.00 84 1015.5
20260902155020 81 237 0.0 3.0 0.00 0.00 0.00 83 1015.7
20260902154535 81 0 0.0 2.0 0.00 0.00 0.00 84 1015.6
20260902154020 81 0 0.0 3.0 0.00 0.00 0.00 84 1015.6
20260902153523 80 0 1.0 3.0 0.00 0.00 0.00 85 1015.5
20260902153036 80 0 0.0 5.0 0.00 0.00 0.00 85 1015.5
20260902152517 80 0 0.0 5.0 0.00 0.00 0.00 85 1015.5
20260902152019 80 0 0.0 3.0 0.00 0.00 0.00 86 1015.4
20260902151536 80 171 0.0 3.0 0.00 0.00 0.00 86 1015.6
20260902151020 80 204 0.0 5.0 0.00 0.00 0.00 85 1015.5
20260902150521 80 0 1.0 5.0 0.00 0.00 0.00 86 1015.6
20260902150038 80 0 0.0 3.0 0.00 0.00 0.00 87 1015.6
20260902145517 79 150 0.0 3.0 0.00 0.00 0.00 86 1015.7
20260902145016 79 172 0.0 3.0 0.00 0.00 0.00 87 1015.7
20260902144537 79 0 0.0 4.0 0.00 0.00 0.00 88 1015.7
20260902144018 78 158 0.0 4.0 0.00 0.00 0.00 89 1015.6
20260902143522 78 245 0.0 4.0 0.00 0.00 0.00 89 1015.6
20260902143038 78 0 0.0 4.0 0.00 0.00 0.00 89 1015.6
20260902142518 77 0 1.0 4.0 0.00 0.00 0.00 90 1015.7
20260902142019 77 0 0.0 3.0 0.00 0.00 0.00 91 1015.6
20260902141538 76 0 0.0 0.0 0.00 0.00 0.00 91 1015.5
20260902141020 76 0 0.0 0.0 0.00 0.00 0.00 91 1015.4
20260902140516 76 0 0.0 0.0 0.00 0.00 0.00 91 1015.5
20260902140040 76 0 0.0 0.0 0.00 0.00 0.00 91 1015.5
20260902135518 76 0 0.0 2.0 0.00 0.00 0.00 91 1015.5
20260902135016 76 0 0.0 3.0 0.00 0.00 0.00 91 1015.4
20260902134538 76 175 0.0 3.0 0.00 0.00 0.00 91 1015.4
20260902134019 75 0 0.0 3.0 0.00 0.00 0.00 91 1015.4
20260902133521 75 0 0.0 2.0 0.00 0.00 0.00 91 1015.5
20260902133035 75 0 0.0 2.0 0.00 0.00 0.00 92 1015.3
20260902132521 75 0 0.0 2.0 0.00 0.00 0.00 91 1015.3
20260902132018 75 0 0.0 0.0 0.00 0.00 0.00 92 1015.3
20260902131538 75 0 0.0 0.0 0.00 0.00 0.00 91 1015.3
20260902131018 75 0 0.0 0.0 0.00 0.00 0.00 91 1015.2
20260902130518 75 0 0.0 0.0 0.00 0.00 0.00 91 1015.3
20260902130042 75 0 0.0 1.0 0.00 0.00 0.00 92 1015.2
20260902125519 75 0 0.0 1.0 0.00 0.00 0.00 92 1015.1
20260902125022 74 0 0.0 0.0 0.00 0.00 0.00 92 1015.2
20260902124535 74 0 0.0 0.0 0.00 0.00 0.00 92 1015.2
20260902124018 74 0 0.0 1.0 0.00 0.00 0.00 92 1015.4
20260902123519 74 0 0.0 1.0 0.00 0.00 0.00 92 1015.2
20260902123035 74 0 0.0 1.0 0.00 0.00 0.00 92 1015.2
20260902122519 74 0 0.0 0.0 0.00 0.00 0.00 92 1015.1
20260902122016 74 0 0.0 0.0 0.00 0.00 0.00 92 1015.1
20260902121538 74 0 0.0 0.0 0.00 0.00 0.00 92 1015.0
20260902121018 73 0 0.0 0.0 0.00 0.00 0.00 92 1015.1
20260902120518 73 0 0.0 0.0 0.00 0.00 0.00 92 1015.2
20260902120039 73 0 0.0 0.0 0.00 0.00 0.00 92 1015.2
20260902115520 73 0 0.0 0.0 0.00 0.00 0.00 92 1015.3
20260902115020 73 0 0.0 0.0 0.00 0.00 0.00 91 1015.4
20260902114602 73 0 0.0 0.0 0.00 0.00 0.00 92 1015.4
20260902114023 73 0 0.0 0.0 0.00 0.00 0.00 91 1015.4
20260902113519 73 0 0.0 0.0 0.00 0.00 0.00 91 1015.4
20260902113047 73 0 0.0 0.0 0.00 0.00 0.00 91 1015.3
20260902112517 73 0 0.0 0.0 0.00 0.00 0.00 91 1015.2
20260902112019 73 0 0.0 0.0 0.00 0.00 0.00 91 1015.2
20260902111537 73 0 0.0 0.0 0.00 0.00 0.00 91 1015.1
20260902111016 73 0 0.0 0.0 0.00 0.00 0.00 91 1015.0
20260902110515 73 0 0.0 0.0 0.00 0.00 0.00 91 1015.0
20260902110041 72 0 0.0 0.0 0.00 0.00 0.00 92 1014.9
20260902105517 72 0 0.0 0.0 0.00 0.00 0.00 92 1014.8
20260902105018 72 0 0.0 0.0 0.00 0.00 0.00 92 1014.6
20260902104539 72 0 0.0 0.0 0.00 0.00 0.00 92 1014.5
20260902104019 72 0 0.0 0.0 0.00 0.00 0.00 92 1014.3
20260902103518 72 0 0.0 0.0 0.00 0.00 0.00 92 1014.3
20260902103035 73 0 0.0 0.0 0.00 0.00 0.00 92 1014.2
20260902102522 73 0 0.0 0.0 0.00 0.00 0.00 92 1014.2
20260902102019 73 0 0.0 0.0 0.00 0.00 0.00 93 1014.3
20260902101534 73 0 0.0 0.0 0.00 0.00 0.00 93 1014.1
20260902101018 73 0 0.0 0.0 0.00 0.00 0.00 93 1014.3
20260902100516 73 0 0.0 0.0 0.00 0.00 0.00 93 1014.3
20260902100038 73 0 0.0 0.0 0.00 0.00 0.00 93 1014.3
20260902095521 73 0 0.0 0.0 0.00 0.00 0.00 93 1014.3
20260902094538 73 0 0.0 0.0 0.00 0.00 0.00 93 1014.1
20260902094019 73 0 0.0 0.0 0.00 0.00 0.00 93 1014.1
20260902093520 73 0 0.0 0.0 0.00 0.00 0.00 93 1014.1
20260902093035 73 0 0.0 0.0 0.00 0.00 0.00 93 1014.1
20260902092519 73 0 0.0 0.0 0.00 0.00 0.00 93 1014.2
20260902092019 73 0 0.0 0.0 0.00 0.00 0.00 93 1014.2
20260902091546 73 0 0.0 0.0 0.00 0.00 0.00 93 1014.2
20260902091018 73 0 0.0 0.0 0.00 0.00 0.00 93 1014.3
20260902090516 73 0 0.0 0.0 0.00 0.00 0.00 93 1014.3
20260902090050 73 0 0.0 0.0 0.00 0.00 0.00 93 1014.5
20260902085517 73 0 0.0 0.0 0.00 0.00 0.00 93 1014.5
20260902085018 73 0 0.0 0.0 0.00 0.00 0.00 93 1014.5
20260902084538 73 0 0.0 0.0 0.00 0.00 0.00 93 1014.3
20260902084020 73 0 0.0 0.0 0.00 0.00 0.00 93 1014.2
20260902083518 73 0 0.0 0.0 0.00 0.00 0.00 93 1014.1
20260902083034 73 0 0.0 0.0 0.00 0.00 0.00 93 1014.1
20260902082517 73 0 0.0 0.0 0.00 0.00 0.00 93 1014.2
20260902082019 73 0 0.0 0.0 0.00 0.00 0.00 93 1014.3
20260902081540 73 0 0.0 0.0 0.00 0.00 0.00 93 1014.3
20260902081017 73 0 0.0 0.0 0.00 0.00 0.00 93 1014.4
20260902080516 73 0 0.0 0.0 0.00 0.00 0.00 93 1014.4
20260902080033 73 0 0.0 0.0 0.00 0.00 0.00 93 1014.5
20260902075517 73 0 0.0 0.0 0.00 0.00 0.00 93 1014.5
20260902075019 73 0 0.0 0.0 0.00 0.00 0.00 93 1014.3
20260902074547 73 0 0.0 0.0 0.00 0.00 0.00 93 1014.3
20260902074019 73 0 0.0 0.0 0.00 0.00 0.00 93 1014.3
20260902073520 73 0 0.0 0.0 0.00 0.00 0.00 93 1014.5
20260902073038 74 0 0.0 0.0 0.00 0.00 0.00 93 1014.5
20260902072517 74 0 0.0 0.0 0.00 0.00 0.00 93 1014.5
20260902072020 74 0 0.0 0.0 0.00 0.00 0.00 93 1014.5
20260902071534 74 0 0.0 0.0 0.00 0.00 0.00 93 1014.4
20260902071018 74 0 0.0 0.0 0.00 0.00 0.00 93 1014.5
20260902070516 74 0 0.0 0.0 0.00 0.00 0.00 93 1014.5
20260902070039 74 0 0.0 0.0 0.00 0.00 0.00 93 1014.5
20260902065517 74 0 0.0 0.0 0.00 0.00 0.00 93 1014.5
20260902065017 74 0 0.0 0.0 0.00 0.00 0.00 93 1014.5
20260902064539 74 0 0.0 0.0 0.00 0.00 0.00 93 1014.6
20260902064019 74 0 0.0 0.0 0.00 0.00 0.00 93 1014.6
20260902063517 74 0 0.0 0.0 0.00 0.00 0.00 93 1014.8
20260902063036 74 0 0.0 0.0 0.00 0.00 0.00 93 1014.7
20260902062520 74 0 0.0 0.0 0.00 0.00 0.00 92 1014.9
20260902062019 74 0 0.0 0.0 0.00 0.00 0.00 92 1014.9
20260902061543 74 0 0.0 0.0 0.00 0.00 0.00 92 1014.8
20260902061016 74 0 0.0 0.0 0.00 0.00 0.00 92 1014.9
20260902060518 74 0 0.0 0.0 0.00 0.00 0.00 92 1015.0
20260902060046 74 0 0.0 0.0 0.00 0.00 0.00 93 1015.0
20260902055519 75 0 0.0 0.0 0.00 0.00 0.00 93 1014.9
20260902055019 75 0 0.0 0.0 0.00 0.00 0.00 92 1014.9
20260902054539 75 0 0.0 0.0 0.00 0.00 0.00 92 1015.0
20260902054021 75 0 0.0 0.0 0.00 0.00 0.00 93 1015.0
20260902053516 75 0 0.0 0.0 0.00 0.00 0.00 93 1014.9
20260902053041 75 0 0.0 0.0 0.00 0.00 0.00 92 1015.0
20260902052519 75 0 0.0 0.0 0.00 0.00 0.00 92 1015.0
20260902052023 75 0 0.0 0.0 0.00 0.00 0.00 92 1015.0
20260902051540 75 0 0.0 0.0 0.00 0.00 0.00 92 1015.3
20260902051017 75 0 0.0 0.0 0.00 0.00 0.00 93 1015.3
20260902050518 75 0 0.0 0.0 0.00 0.00 0.00 92 1015.2
20260902050033 75 0 0.0 0.0 0.00 0.00 0.00 92 1015.2
20260902045516 75 0 0.0 0.0 0.00 0.00 0.00 92 1015.1
20260902045016 75 0 0.0 0.0 0.00 0.00 0.00 92 1015.0
20260902044536 75 0 0.0 0.0 0.00 0.00 0.00 92 1014.9
20260902044017 75 0 0.0 0.0 0.00 0.00 0.00 92 1014.9
20260902043518 75 0 0.0 0.0 0.00 0.00 0.00 92 1014.9
20260902043032 75 0 0.0 0.0 0.00 0.00 0.00 92 1014.9
20260902042517 75 0 0.0 0.0 0.00 0.00 0.00 92 1015.0
20260902042019 75 0 0.0 0.0 0.00 0.00 0.00 92 1014.9
20260902041539 75 0 0.0 0.0 0.00 0.00 0.00 92 1015.0
20260902041019 75 0 0.0 0.0 0.00 0.00 0.00 92 1014.9
20260902040517 75 0 0.0 0.0 0.00 0.00 0.00 91 1014.9
20260902040034 75 0 0.0 0.0 0.00 0.00 0.00 91 1014.7
20260902035517 75 0 0.0 0.0 0.00 0.00 0.00 91 1014.7
20260902035016 75 0 0.0 0.0 0.00 0.00 0.00 91 1014.8
20260902034540 75 0 0.0 0.0 0.00 0.00 0.00 91 1014.7
20260902034017 75 0 0.0 0.0 0.00 0.00 0.00 91 1014.8
20260902033517 76 0 0.0 0.0 0.00 0.00 0.00 91 1014.8
20260902033034 76 0 0.0 0.0 0.00 0.00 0.00 91 1014.8
20260902032519 76 0 0.0 0.0 0.00 0.00 0.00 91 1014.8
20260902032021 76 0 0.0 0.0 0.00 0.00 0.00 91 1015.0
20260902031538 76 0 0.0 0.0 0.00 0.00 0.00 91 1014.8
20260902031018 76 0 0.0 0.0 0.00 0.00 0.00 91 1014.8
20260902030517 76 0 0.0 0.0 0.00 0.00 0.00 91 1014.8
20260902030035 76 0 0.0 0.0 0.00 0.00 0.00 91 1014.9
20260902025519 76 0 0.0 0.0 0.00 0.00 0.00 91 1014.9
20260902025019 76 0 0.0 0.0 0.00 0.00 0.00 90 1014.9
20260902024538 76 0 0.0 0.0 0.00 0.00 0.00 90 1014.9
20260902024021 76 0 0.0 0.0 0.00 0.00 0.00 90 1015.0
20260902023517 76 0 0.0 0.0 0.00 0.00 0.00 90 1015.0
20260902023042 77 0 0.0 0.0 0.00 0.00 0.00 90 1015.0
20260902022518 77 0 0.0 0.0 0.00 0.00 0.00 90 1015.0
20260902022020 77 0 0.0 0.0 0.00 0.00 0.00 90 1015.0
20260902021537 77 0 0.0 0.0 0.00 0.00 0.00 89 1014.9
20260902021018 77 0 0.0 0.0 0.00 0.00 0.00 89 1014.9
20260902020518 77 0 0.0 0.0 0.00 0.00 0.00 89 1014.9
20260902020036 77 0 0.0 0.0 0.00 0.00 0.00 89 1014.9
20260902015518 77 0 0.0 0.0 0.00 0.00 0.00 89 1014.8
20260902015019 77 0 0.0 0.0 0.00 0.00 0.00 89 1014.8
20260902014539 78 0 0.0 0.0 0.00 0.00 0.00 89 1014.9
20260902014019 78 0 0.0 0.0 0.00 0.00 0.00 89 1014.8
20260902013519 78 0 0.0 0.0 0.00 0.00 0.00 89 1014.9
20260902013033 78 0 0.0 0.0 0.00 0.00 0.00 89 1015.0
20260902012518 78 0 0.0 0.0 0.00 0.00 0.00 89 1014.9
20260902012019 78 0 0.0 0.0 0.00 0.00 0.00 89 1014.9
20260902011539 78 0 0.0 0.0 0.00 0.00 0.00 89 1014.7
20260902011017 78 0 0.0 0.0 0.00 0.00 0.00 89 1014.7
20260902010516 78 0 0.0 0.0 0.00 0.00 0.00 89 1014.6
20260902010036 78 0 0.0 0.0 0.00 0.00 0.00 89 1014.5
20260902005517 78 0 0.0 0.0 0.00 0.00 0.00 89 1014.3
20260902005020 78 0 0.0 0.0 0.00 0.00 0.00 89 1014.3
20260902004538 78 0 0.0 0.0 0.00 0.00 0.00 89 1014.2
20260902004019 78 0 0.0 0.0 0.00 0.00 0.00 89 1014.2
20260902003520 78 0 0.0 0.0 0.00 0.00 0.00 89 1014.2
20260902003039 79 0 0.0 0.0 0.00 0.00 0.00 89 1014.3
20260902002518 79 0 0.0 0.0 0.00 0.00 0.00 89 1014.3
20260902002017 79 0 0.0 0.0 0.00 0.00 0.00 88 1014.2
20260902001548 79 0 0.0 0.0 0.00 0.00 0.00 88 1014.2
20260902001017 79 0 0.0 0.0 0.00 0.00 0.00 88 1014.3
20260902000517 80 0 0.0 0.0 0.00 0.00 0.00 88 1014.3
20260902000041 80 0 0.0 0.0 0.00 0.00 0.00 87 1014.3
20260901235518 80 0 0.0 0.0 0.00 0.00 0.00 87 1014.4
20260901235015 81 0 0.0 0.0 0.00 0.00 0.00 86 1014.5
20260901234535 81 0 0.0 0.0 0.00 0.00 0.00 86 1014.5
20260901234019 81 0 0.0 0.0 0.00 0.00 0.00 85 1014.5
20260901233520 81 0 0.0 0.0 0.00 0.00 0.00 85 1014.6
20260901233053 81 0 0.0 0.0 0.00 0.00 0.00 84 1014.5
20260901232519 82 0 0.0 0.0 0.00 0.00 0.00 84 1014.6
20260901232019 82 0 0.0 0.0 0.00 0.00 0.00 84 1014.6
20260901231533 82 0 0.0 0.0 0.00 0.00 0.00 83 1014.6
20260901231016 82 0 0.0 0.0 0.00 0.00 0.00 82 1014.6
20260901230518 83 0 0.0 0.0 0.00 0.00 0.00 82 1014.7
20260901230037 83 0 0.0 0.0 0.00 0.00 0.00 83 1014.7
20260901225517 83 0 0.0 0.0 0.00 0.00 0.00 80 1014.6
20260901225020 83 0 0.0 0.0 0.00 0.00 0.00 80 1014.7
20260901224534 83 0 0.0 0.0 0.00 0.00 0.00 80 1014.7
20260901224017 84 0 0.0 0.0 0.00 0.00 0.00 80 1014.6
20260901223518 84 0 0.0 0.0 0.00 0.00 0.00 80 1014.6
20260901223034 84 0 0.0 0.0 0.00 0.00 0.00 78 1014.6
20260901222519 84 0 0.0 0.0 0.00 0.00 0.00 78 1014.6
20260901222017 85 0 0.0 0.0 0.00 0.00 0.00 75 1014.7
20260901221533 85 0 0.0 0.0 0.00 0.00 0.00 77 1014.7
20260901221018 85 0 0.0 0.0 0.00 0.00 0.00 77 1014.6
20260901220516 85 0 0.0 0.0 0.00 0.00 0.00 74 1014.7
20260901220058 85 0 0.0 0.0 0.00 0.00 0.00 74 1014.6
20260901215518 85 0 0.0 0.0 0.00 0.00 0.00 77 1014.6
20260901215016 85 0 0.0 0.0 0.00 0.00 0.00 77 1014.7
20260901214532 86 0 0.0 0.0 0.00 0.00 0.00 75 1014.6
20260901214021 86 0 0.0 0.0 0.00 0.00 0.00 75 1014.6
20260901213519 86 0 0.0 1.0 0.00 0.00 0.00 74 1014.7
20260901213034 86 0 0.0 1.0 0.00 0.00 0.00 72 1014.7
20260901212518 87 0 0.0 0.0 0.00 0.00 0.00 74 1014.7
20260901212016 87 0 0.0 2.0 0.00 0.00 0.00 72 1014.7
20260901211539 87 0 0.0 2.0 0.00 0.00 0.00 70 1014.7
20260901211019 87 0 0.0 2.0 0.00 0.00 0.00 73 1014.7
20260901210519 87 248 0.0 2.0 0.00 0.00 0.00 74 1014.6
20260901210041 87 204 1.0 2.0 0.00 0.00 0.00 70 1014.6
20260901205521 87 262 0.0 2.0 0.00 0.00 0.00 71 1014.6
20260901205018 87 262 0.0 2.0 0.00 0.00 0.00 70 1014.7
20260901204534 87 0 0.0 2.0 0.00 0.00 0.00 71 1014.6
20260901204018 87 0 0.0 2.0 0.00 0.00 0.00 74 1014.6
20260901203519 87 260 0.0 2.0 0.00 0.00 0.00 73 1014.6
20260901203038 87 0 0.0 2.0 0.00 0.00 0.00 72 1014.6
20260901202518 87 0 0.0 2.0 0.00 0.00 0.00 73 1014.6
20260901202018 87 0 0.0 2.0 0.00 0.00 0.00 72 1014.7
20260901201539 87 0 1.0 2.0 0.00 0.00 0.00 72 1014.7
20260901201018 87 252 0.0 2.0 0.00 0.00 0.00 73 1014.7
20260901200521 86 284 0.0 3.0 0.00 0.00 0.00 75 1014.6
20260901200034 86 262 0.0 3.0 0.00 0.00 0.00 74 1014.6
20260901195516 86 0 0.0 1.0 0.00 0.01 0.00 74 1014.6
20260901195021 86 0 0.0 3.0 0.00 0.01 0.00 72 1014.8
20260901194540 86 267 0.0 3.0 0.00 0.01 0.00 72 1014.8
20260901194019 86 0 0.0 3.0 0.00 0.01 0.00 74 1014.8
20260901193519 86 0 0.0 3.0 0.00 0.01 0.00 73 1014.9
20260901193037 86 275 1.0 3.0 0.00 0.01 0.00 74 1015.0
20260901192516 86 0 0.0 2.0 0.00 0.01 0.00 75 1015.0
20260901192016 86 0 0.0 3.0 0.00 0.01 0.00 76 1015.0
20260901191537 85 0 0.0 3.0 0.00 0.01 0.00 76 1015.0
20260901191019 85 353 0.0 2.0 0.00 0.01 0.00 77 1015.1
20260901190516 85 0 0.0 2.0 0.00 0.01 0.00 78 1015.1
20260901190033 85 0 0.0 2.0 0.00 0.01 0.00 77 1015.1
20260901185520 85 0 0.0 3.0 0.00 0.01 0.00 77 1015.2
20260901185023 85 294 0.0 3.0 0.00 0.01 0.00 77 1015.3
20260901184534 85 0 0.0 1.0 0.00 0.01 0.00 76 1015.3
20260901184019 85 0 0.0 2.0 0.00 0.01 0.00 78 1015.3
20260901183517 85 0 0.0 4.0 0.00 0.01 0.00 79 1015.2
20260901183036 85 0 1.0 4.0 0.00 0.01 0.00 74 1015.2
20260901182517 85 260 0.0 4.0 0.00 0.01 0.00 76 1015.3
20260901182017 85 0 1.0 4.0 0.00 0.01 0.00 79 1015.3
20260901181540 84 0 0.0 4.0 0.00 0.01 0.00 76 1015.4
20260901181016 84 197 1.0 4.0 0.00 0.01 0.00 76 1015.3
20260901180519 83 0 0.0 3.0 0.00 0.01 0.00 80 1015.3
20260901180037 82 0 0.0 3.0 0.00 0.01 0.00 81 1015.2
20260901175520 82 0 0.0 3.0 0.00 0.03 0.00 79 1015.1
20260901175019 83 258 0.0 2.0 0.00 0.03 0.00 80 1015.2
20260901174534 83 0 0.0 3.0 0.00 0.03 0.00 79 1015.1
20260901174020 83 218 0.0 3.0 0.00 0.03 0.00 78 1015.1
20260901173517 83 161 0.0 2.0 0.00 0.03 0.00 79 1015.2
20260901173039 83 247 0.0 2.0 0.00 0.03 0.00 77 1015.2
20260901172519 83 0 0.0 1.0 0.00 0.03 0.00 80 1015.2
20260901172020 83 0 0.0 2.0 0.00 0.03 0.00 79 1015.2
20260901171546 83 266 0.0 2.0 0.00 0.03 0.00 77 1015.2
20260901171018 83 291 0.0 2.0 0.00 0.03 0.00 79 1015.2
20260901170519 83 0 0.0 2.0 0.00 0.03 0.00 80 1015.2
20260901170100 83 0 0.0 2.0 0.00 0.03 0.00 77 1015.2
20260901165518 83 0 0.0 1.0 0.00 0.16 0.00 81 1015.2
20260901165018 82 0 0.0 1.0 0.00 0.16 0.00 79 1015.3
20260901164541 82 0 0.0 1.0 0.00 0.16 0.00 81 1015.3
20260901164019 82 0 0.0 1.0 0.00 0.16 0.00 79 1015.3
20260901163518 83 0 0.0 2.0 0.00 0.16 0.00 79 1015.4
20260901163042 82 291 0.0 2.0 0.00 0.16 0.00 79 1015.4
20260901162522 82 270 0.0 3.0 0.00 0.16 0.00 78 1015.6
20260901162017 83 185 0.0 3.0 0.00 0.16 0.00 79 1015.5
20260901161534 82 281 1.0 3.0 0.00 0.16 0.00 77 1015.5
20260901161020 82 0 0.0 3.0 0.00 0.16 0.00 77 1015.4
20260901160516 82 256 1.0 3.0 0.00 0.16 0.00 79 1015.4
20260901160044 82 0 0.0 2.0 0.00 0.16 0.00 78 1015.4